Location: Unspecified
(0.0000°N, 0.0000°E)
Time: 22:56:52
(UTC+00:00)

N. Korean satellite - Pass Details

Date: 21 October 2020
Orbit: 452 x 505 km, 97.2° (Epoch: 30 October)

Event Time Altitude Azimuth Distance (km) Brightness Sun altitude
Rises 05:06:05 0° 12° (NNE) 2,445 10.2 -9.5°
Reaches altitude 10° 05:08:05 10° 12° (NNE) 1,578 9.2 -9.0°
Maximum altitude 05:11:28 84° 99° (E) 460 6.5 -8.1°
Drops below altitude 10° 05:14:53 10° 189° (S) 1,599 9.2 -7.3°
Sets 05:16:57 0° 190° (S) 2,482 10.2 -6.8°
